Tracking 19562 objects as of 21-Mar-2019
HD Live streaming from Space Station
objects crossing your sky now

RUBIN 3/SL-8

Track RUBIN 3/SL-8 now!
10-day predictions
RUBIN 3/SL-8 is classified as:


NORAD ID: 27561
Int'l Code: 2002-054C
Perigee: 681.7 km
Apogee: 746.7 km
Inclination: 98.3 °
Period: 98.9 minutes
Semi major axis: 7085 km
RCS: 7.5153 m2 (large)
Launch date: November 28, 2002
Source: Germany (GER)
Launch site: PLESETSK MISSILE AND SPACE COMPLEX (PKMTR)
aabbcc
Your satellite tracking list
Your tracking list is empty




NASA's NSSDC Master Catalog

Two Line Element Set (TLE):
1 27561U 02054C   19080.88602742  .00000048  00000-0  21920-4 0  9997
2 27561  98.3446 221.0534 0045866 351.9678   8.0780 14.55722483865780
Source of the keplerian elements: AFSPC